Theta_e
285 285 285 285 285 286 286 286 286 287 286 287 286 286 285 285 285 286 284 284 285 284 284 284 284 284 283 283 282 282 281 281 280 280 280 279 279 279 278 278 277 277 277 276 276 276 276 276 276 276 276 275 275 275 275 275 275 275 275 275 275 275 274 274 272 272 274 274 274 274 274 274 273 274 274 274 274 274 277 275 275 275 275 275 276
284 284 284 284 284 286 286 285 285 285 286 286 286 286 285 285 286 285 285 285 284 285 284 284 284 284 283 283 283 282 281 281 280 280 280 279 279 279 278 278 277 277 276 276 276 276 276 276 275 275 275 275 275 275 275 275 275 274 274 274 274 274 275 273 273 272 272 272 272 273 272 274 272 274 273 273 273 275 274 275 275 275 275 275 275
283 284 284 284 285 285 285 285 285 285 285 286 285 286 286 285 286 286 285 284 284 284 284 284 284 283 283 283 282 282 281 281 281 280 280 279 279 278 278 278 277 277 276 276 276 276 275 275 275 275 275 274 274 274 274 274 274 274 274 274 273 273 274 274 272 270 271 270 272 271 272 272 272 272 273 274 274 274 274 274 275 276 276 276 276
284 284 284 284 284 284 285 285 285 285 285 286 286 286 286 286 286 286 285 285 284 284 284 284 284 283 283 282 282 282 281 281 281 280 280 279 279 278 278 277 277 277 276 276 276 275 275 275 275 274 274 274 274 274 274 274 274 273 273 273 273 272 272 272 272 271 270 268 270 270 272 271 272 273 274 274 274 274 274 274 275 275 275 276 276
285 285 284 284 285 285 285 285 285 286 286 286 286 287 287 287 286 285 285 284 284 283 284 284 283 283 283 282 282 282 281 281 280 280 280 280 279 278 278 277 277 277 276 276 277 275 275 275 275 274 274 273 273 273 273 273 273 272 272 272 272 272 271 271 271 271 270 269 269 271 272 272 273 273 274 273 273 274 274 274 274 275 275 275 276
286 286 286 286 286 285 286 286 286 286 286 287 287 287 287 287 286 286 285 284 284 284 284 283 283 283 283 283 282 282 281 281 280 280 279 279 279 278 277 277 277 277 276 276 276 276 275 275 274 274 274 273 273 273 273 272 272 272 271 271 271 271 270 270 270 270 270 269 269 269 271 271 272 272 273 274 273 273 273 274 274 275 274 274 275
287 287 286 285 285 285 285 286 286 286 286 287 287 287 287 287 286 286 285 285 284 283 283 283 283 283 283 283 282 282 281 281 280 280 279 279 278 278 277 277 276 276 276 276 276 276 275 275 274 274 274 274 273 272 272 272 271 271 271 271 271 270 270 270 270 269 269 269 270 270 271 272 272 271 274 274 274 274 272 273 273 275 275 275 275
286 286 286 286 286 286 286 286 286 286 287 287 287 286 286 286 286 286 285 284 284 284 283 283 283 283 283 282 282 282 281 280 280 279 279 278 278 277 277 277 276 276 276 275 275 275 275 275 274 274 274 274 273 273 272 271 271 270 271 271 270 270 270 270 269 269 269 269 269 269 271 272 272 273 274 274 272 273 274 274 272 273 273 274 274
285 285 285 285 285 286 286 286 286 285 286 286 286 286 286 286 286 285 285 284 284 284 284 283 283 282 282 282 282 281 281 280 280 279 278 278 278 278 277 277 276 275 275 275 274 274 274 274 274 274 274 276 276 275 274 274 271 270 270 270 270 270 269 269 269 270 270 270 270 272 272 272 273 272 272 272 272 272 274 274 273 273 273 274 274
284 284 284 285 285 285 285 285 285 285 285 285 285 285 285 285 285 285 285 284 284 284 283 283 282 282 282 282 282 281 281 281 281 283 282 279 278 277 277 276 276 275 275 274 274 274 274 273 274 276 277 277 277 277 277 277 276 272 271 271 270 269 269 268 269 269 270 269 270 271 272 271 272 273 273 273 274 274 273 273 271 273 274 274 275
284 284 284 284 284 285 284 284 285 284 285 285 285 285 285 285 285 284 284 284 283 283 282 282 282 282 282 282 281 281 281 281 283 285 285 284 279 277 276 276 275 275 274 273 273 273 273 272 272 275 276 277 276 278 278 278 277 276 276 275 274 271 269 269 269 271 270 270 272 272 272 272 273 274 273 274 274 273 272 273 273 273 272 271 270
283 283 283 283 284 284 284 283 283 284 284 284 284 284 284 284 284 283 283 283 283 282 282 282 282 282 282 282 281 281 281 283 284 285 285 285 282 278 277 276 275 275 274 273 273 272 272 272 272 273 274 274 274 276 277 279 278 278 278 277 277 277 276 273 271 271 272 272 272 273 273 273 273 274 274 274 273 273 274 274 274 273 272 272 272
283 283 283 283 283 283 283 282 282 282 283 283 283 283 282 283 283 282 282 283 282 281 282 282 282 282 282 281 281 281 280 283 285 285 285 285 284 280 277 276 275 275 274 273 273 272 272 271 271 272 273 276 275 274 275 276 279 279 278 278 278 278 279 279 278 275 275 274 273 273 274 274 273 274 274 273 275 273 274 274 274 274 274 273 273
283 283 283 283 282 282 282 282 281 282 282 282 282 281 281 282 282 282 282 282 282 282 282 282 282 281 281 281 281 281 280 283 285 285 285 286 285 282 277 276 275 275 274 273 273 272 272 271 271 271 272 274 274 274 275 275 276 276 276 276 276 278 280 280 280 280 279 276 275 273 274 274 273 274 275 276 275 273 274 274 275 274 273 272 273
283 283 283 283 282 282 281 281 281 281 281 281 281 281 281 282 282 282 282 282 282 282 282 281 281 281 281 280 280 280 280 283 285 285 286 286 286 283 276 275 274 274 274 273 273 272 272 272 271 271 272 273 274 274 275 275 276 275 276 276 277 277 278 278 278 277 277 275 274 274 274 275 275 275 276 276 276 275 276 275 274 272 272 272 270
283 284 283 283 282 282 281 280 280 280 280 280 280 281 281 281 282 282 281 282 282 282 281 281 281 280 280 280 279 279 279 283 284 285 286 286 286 281 276 274 273 273 273 273 272 272 272 272 272 272 273 274 276 278 277 275 274 274 274 274 274 274 274 276 277 277 275 274 275 275 276 276 278 277 277 278 278 278 277 274 272 269 266 265 264
283 283 283 283 282 282 281 280 279 279 280 280 280 280 281 281 281 281 280 280 281 280 280 280 280 280 280 279 279 278 277 281 284 285 286 286 285 278 274 273 273 272 272 272 272 272 272 273 273 273 274 274 277 280 280 278 272 272 271 270 270 271 271 274 277 278 278 279 279 279 280 280 281 281 280 280 278 277 273 270 267 265 262 262 263
282 283 282 283 282 282 281 280 279 278 278 278 279 280 280 280 280 280 279 279 279 279 279 279 278 278 278 278 278 277 276 279 283 285 285 286 284 276 274 273 272 271 271 272 272 273 273 276 275 274 274 274 279 281 281 278 272 272 271 270 269 270 271 273 275 276 279 280 280 280 280 279 278 278 277 276 276 276 270 266 265 263 262 261 261
282 282 282 283 283 282 282 281 280 279 278 279 278 277 277 278 279 277 277 278 278 278 277 277 276 276 276 277 278 277 276 277 283 284 285 286 283 275 274 272 271 271 271 271 272 273 274 276 277 276 275 276 280 281 282 278 272 272 271 270 270 270 271 274 273 272 274 274 274 273 274 274 272 271 272 274 273 272 269 267 264 261 261 261 261
281 282 282 282 283 283 283 281 281 280 279 279 278 277 276 275 274 275 274 274 274 274 274 274 274 274 274 275 275 276 275 275 279 284 285 286 284 275 273 272 271 271 271 272 272 273 274 275 277 279 279 279 280 282 282 280 273 272 272 271 270 270 273 273 273 274 273 272 271 272 271 271 271 271 269 268 268 268 268 268 266 264 261 261 261
280 280 281 281 282 282 282 282 281 280 280 278 278 277 276 275 275 273 273 272 270 270 271 272 272 272 272 273 273 275 274 274 276 283 285 286 285 278 273 273 273 273 272 272 272 272 273 274 275 279 279 280 280 282 282 282 277 273 273 272 273 273 275 272 274 276 272 270 269 269 267 267 266 266 267 266 266 267 267 268 268 268 265 263 262
279 279 279 280 281 281 282 282 282 280 279 278 277 277 277 275 275 274 273 273 272 272 271 271 270 270 270 272 272 273 275 276 274 281 284 285 286 280 275 274 274 273 273 272 273 273 273 274 274 278 280 280 280 281 282 282 280 275 275 277 278 277 275 273 270 268 267 266 264 263 262 261 261 260 261 263 265 266 267 267 268 268 268 268 265
277 277 278 278 279 280 281 281 281 281 279 278 277 277 277 275 274 274 273 273 272 272 272 272 271 270 269 270 271 272 273 274 277 277 282 285 286 282 279 277 278 275 273 272 273 273 273 274 275 278 280 280 280 281 281 282 281 277 279 279 278 278 275 268 268 265 264 263 262 261 261 260 259 259 260 263 265 266 266 267 267 268 268 268 269
275 275 276 277 277 277 278 279 280 280 280 279 277 276 276 275 274 273 273 273 273 272 272 271 271 270 270 269 270 271 272 272 276 278 279 284 285 284 281 279 280 275 275 274 274 273 273 273 275 279 280 280 281 281 281 281 280 280 280 279 279 277 267 267 265 264 262 261 260 259 258 259 259 260 261 263 265 266 267 267 267 267 267 268 268
273 273 274 274 274 275 276 277 278 279 279 278 277 277 276 275 273 273 273 273 273 272 272 272 271 271 271 270 270 271 271 271 272 276 279 281 285 285 282 281 281 279 275 274 274 274 275 277 277 279 280 280 281 281 281 281 281 280 279 279 276 266 265 264 263 261 262 260 259 257 257 259 261 262 265 265 266 266 266 265 266 266 266 266 266
270 270 270 271 272 272 273 274 275 277 278 278 277 277 277 276 274 274 273 272 273 273 273 272 271 271 271 271 271 271 271 271 272 274 277 279 282 284 284 281 281 280 277 275 276 277 277 278 278 279 280 280 278 278 276 277 279 279 279 273 266 265 263 262 261 261 260 258 258 257 258 260 262 264 265 265 263 262 262 261 260 261 262 262 262
268 267 267 268 269 270 270 271 272 274 275 277 277 276 276 276 275 274 273 272 272 272 273 272 272 271 271 272 271 270 270 271 272 272 274 276 278 281 283 280 281 280 276 275 276 275 276 276 276 278 278 280 278 276 276 277 274 270 266 265 263 262 262 261 261 260 259 257 257 258 260 262 262 261 261 261 260 261 263 261 260 260 261 262 261
265 265 265 266 267 267 268 270 271 272 273 275 276 276 276 275 275 274 274 273 273 272 272 272 272 272 272 272 271 269 269 270 271 271 273 275 277 279 281 279 278 277 274 274 274 275 275 277 277 276 276 273 270 269 267 266 265 265 263 262 261 261 262 265 264 262 261 262 261 261 260 259 257 258 259 260 260 260 261 260 260 260 261 262 261
264 263 264 264 265 267 268 269 269 271 272 273 275 276 276 276 275 275 276 276 275 274 274 274 274 274 273 273 271 269 269 269 270 274 274 277 277 278 280 278 278 276 275 277 274 274 274 273 271 269 267 266 265 264 263 263 262 261 261 260 260 260 260 260 260 260 260 258 257 256 256 258 257 258 258 258 258 259 260 259 260 260 261 262 261
261 261 262 263 264 265 266 267 268 270 270 272 273 274 276 279 278 276 276 278 279 280 279 276 275 275 274 274 273 271 270 271 275 277 277 278 280 281 282 281 280 276 277 279 275 272 271 269 268 268 267 266 265 264 264 263 261 259 258 262 259 258 258 258 258 258 258 257 258 257 257 258 257 257 257 258 258 258 260 263 261 261 260 260 260
260 261 262 262 264 265 265 266 266 267 268 269 270 271 272 275 279 281 280 279 279 280 281 281 280 279 275 273 274 277 276 275 276 277 278 279 280 281 282 282 281 279 280 276 272 270 269 268 268 267 266 266 265 265 263 262 261 259 258 260 259 259 260 258 258 259 259 259 259 258 258 257 258 257 257 257 258 259 258 260 260 260 260 260 260
259 260 260 261 262 262 263 263 264 264 265 266 267 268 270 271 273 277 280 280 281 280 280 281 281 280 280 277 274 273 276 277 277 277 278 279 280 281 282 282 281 280 280 278 270 269 269 268 267 266 265 265 265 264 263 262 261 259 258 257 257 258 258 257 259 258 258 258 258 258 258 258 258 258 257 258 259 259 259 259 259 259 260 261 261
258 259 259 260 260 261 262 262 263 264 264 266 267 269 270 271 271 271 274 278 280 281 280 280 280 281 281 280 279 276 276 277 278 278 278 279 280 281 282 282 281 281 280 273 269 269 268 268 267 266 265 265 264 263 261 261 260 259 259 258 257 257 258 259 261 259 258 258 258 257 258 258 258 258 258 258 259 258 259 259 259 259 260 260 261
258 259 259 259 260 260 261 262 263 264 266 267 268 269 270 271 271 272 271 272 273 277 280 281 280 280 280 281 280 279 278 278 278 278 279 279 280 281 281 280 281 281 278 271 269 268 267 267 266 265 264 264 263 261 260 259 259 258 258 258 258 258 258 259 258 257 257 257 258 257 258 257 257 257 257 258 259 259 258 259 259 259 259 261 261
258 260 261 262 261 262 263 263 264 265 266 266 267 268 269 270 271 271 271 271 271 271 272 275 278 280 278 279 280 280 279 278 278 279 279 279 280 281 282 278 276 276 275 271 269 268 266 266 265 264 263 263 261 260 259 259 258 258 257 257 257 257 257 256 256 256 256 256 256 256 256 257 257 258 258 258 258 258 258 259 259 260 260 261 262
259 259 260 261 261 262 263 263 264 264 264 265 265 267 269 271 271 271 271 271 271 271 272 273 274 277 280 280 280 280 280 279 279 279 279 280 280 281 277 275 275 274 271 269 268 267 266 266 265 263 263 262 260 260 259 258 257 257 257 256 256 255 255 255 255 255 255 256 256 257 258 258 258 256 255 256 257 258 258 259 259 261 262 262 263
259 259 260 260 261 262 263 263 264 265 266 266 266 267 267 268 270 271 271 271 271 271 272 272 272 273 276 277 278 280 280 279 279 279 279 280 280 279 277 275 274 273 268 267 266 265 265 264 263 262 262 260 259 259 258 257 257 255 257 255 255 255 255 254 254 255 255 256 257 258 256 256 255 255 256 257 258 259 259 260 261 262 263 264 264
259 259 260 261 262 263 264 264 265 266 266 266 267 267 267 268 269 270 270 270 270 270 270 271 272 271 271 273 277 277 277 279 279 278 279 279 278 277 276 275 273 269 267 267 266 265 264 264 262 261 261 260 258 257 256 255 255 255 255 255 255 254 257 257 259 258 257 256 255 254 255 255 255 255 257 257 258 258 259 260 261 261 263 264 264
259 260 261 261 263 261 262 262 263 264 265 266 267 268 268 269 269 270 270 270 270 270 270 270 271 271 271 273 275 276 276 275 274 273 274 275 276 277 276 274 272 268 267 266 265 264 263 261 260 260 258 257 257 256 255 255 254 254 254 253 253 254 256 255 254 254 254 253 254 254 254 255 255 255 256 257 257 259 260 261 262 262 262 263 263
257 258 259 261 261 262 262 263 263 263 264 266 267 269 269 269 269 269 269 269 269 269 269 270 270 271 272 273 274 274 273 273 273 273 274 274 275 276 275 273 270 267 265 264 263 262 261 260 259 258 257 256 255 254 254 254 254 253 253 253 253 252 253 253 252 253 253 253 254 254 254 254 255 255 256 257 258 260 261 262 262 263 263 263 263
258 259 260 261 261 261 261 262 263 264 265 266 266 267 268 269 269 269 269 269 269 269 269 270 270 272 273 274 276 276 273 273 273 273 273 274 274 274 272 270 267 264 263 263 262 261 259 258 257 256 255 255 254 253 253 253 253 253 252 253 253 252 252 253 253 253 253 253 253 253 253 254 254 255 256 258 262 262 262 262 262 262 263 263 263
256 257 257 257 258 258 259 260 260 262 262 263 267 268 269 269 269 269 269 269 269 269 269 269 270 271 273 276 276 277 274 273 273 273 273 272 269 268 267 266 265 264 263 262 261 259 257 256 255 255 254 253 253 252 252 252 252 252 252 252 252 252 252 252 253 252 252 253 253 253 253 254 256 258 259 262 260 260 260 261 262 263 263 262 262
256 257 257 257 258 258 258 259 260 260 262 263 264 267 269 269 269 269 268 268 269 269 269 269 270 271 272 275 276 277 274 273 268 269 267 267 266 265 265 264 263 262 262 261 260 258 256 255 254 253 253 253 252 252 251 251 252 251 251 251 251 251 252 252 252 252 252 252 252 253 254 254 256 256 256 257 259 260 261 262 262 262 262 262 262
257 257 257 258 258 259 259 260 260 261 262 264 265 266 268 269 269 268 268 268 268 268 269 269 270 270 271 274 275 274 269 267 267 266 265 264 264 263 261 260 260 259 257 257 256 256 255 254 253 253 252 252 252 252 252 252 252 251 251 251 251 251 251 251 252 252 252 252 252 254 254 255 256 256 257 259 259 260 261 262 262 262 262 261 262
257 257 257 258 258 258 259 260 260 261 262 264 265 267 268 268 268 268 268 268 268 268 269 269 269 270 270 272 273 269 265 265 262 262 262 261 260 259 257 256 256 255 254 254 255 254 254 253 252 251 250 250 250 250 250 250 251 251 251 251 251 252 252 252 251 251 251 252 253 254 255 255 255 256 257 259 261 261 262 262 261 262 262 262 261
258 258 258 258 259 260 260 260 262 262 263 264 266 267 267 267 267 267 267 268 267 268 268 268 269 269 268 265 263 263 262 261 261 260 259 258 257 256 254 254 253 253 252 252 252 252 252 251 251 250 250 249 249 249 249 249 249 249 250 250 251 251 251 250 249 249 250 251 253 253 254 255 256 257 259 260 261 262 262 262 261 262 262 262 261
260 259 259 259 260 260 261 261 262 263 264 266 267 267 266 266 267 267 266 267 267 266 267 267 265 262 262 262 261 261 260 260 259 258 257 256 254 253 252 252 251 251 251 251 251 251 251 251 250 250 249 249 249 248 248 248 249 249 249 249 249 250 249 249 250 250 250 252 253 254 255 256 257 258 260 261 261 262 262 261 261 261 262 261 261
261 262 262 262 261 261 261 262 262 263 264 265 265 265 265 265 265 265 265 265 265 264 263 261 262 261 260 260 260 259 259 258 257 257 255 253 253 252 252 251 250 250 250 250 250 250 250 249 249 249 249 249 248 248 248 248 248 248 249 249 249 249 250 251 250 250 251 252 253 255 255 256 257 259 260 261 262 262 261 261 262 262 261 261 261
260 261 261 262 262 263 263 263 263 263 263 263 263 263 263 263 263 263 264 263 262 261 261 261 259 259 259 258 258 258 257 257 256 255 253 252 252 252 252 251 250 250 249 248 248 248 248 248 248 248 248 248 248 248 248 248 248 248 248 248 249 252 253 253 252 252 253 254 255 256 257 258 258 259 261 262 262 261 260 261 261 262 261 261 260
259 260 260 260 261 261 261 262 262 262 262 262 261 261 261 261 262 262 261 260 260 260 259 259 259 258 258 257 257 257 257 256 255 254 252 252 252 251 251 250 250 250 249 248 247 247 247 247 247 247 247 247 247 247 247 247 248 248 248 248 252 254 255 255 256 256 256 257 257 258 259 261 263 264 263 261 260 260 260 262 262 261 260 259 259
258 259 259 259 259 260 260 260 260 260 260 260 260 260 260 260 260 260 260 259 259 258 258 258 257 257 257 257 257 257 256 256 255 253 252 252 251 251 250 250 249 249 248 247 247 246 246 246 246 246 246 247 247 247 247 247 247 247 249 251 253 254 255 256 256 258 260 260 262 263 264 264 264 263 262 260 259 259 261 262 262 261 259 259 259
Wind_Speed
6 7 5 6 5 9 8 7 9 7 7 8 9 9 8 9 9 9 4 11 11 13 14 15 15 15 14 14 15 14 14 14 12 12 12 12 11 11 10 11 12 9 8 9 7 8 9 9 9 7 8 9 8 7 7 7 7 6 6 6 7 6 8 8 8 7 4 1 2 2 4 5 6 5 8 7 9 8 8 7 7 6 6 6 6
5 6 5 5 7 8 9 6 7 7 9 10 11 10 9 10 9 7 12 10 9 13 13 13 13 14 14 15 14 14 14 15 14 13 14 14 13 10 11 13 12 11 10 11 10 9 9 9 9 8 8 9 8 9 8 8 8 8 8 9 8 9 8 8 7 6 8 1 1 2 2 1 3 4 5 6 8 8 9 9 7 7 7 7 7
5 6 6 7 8 8 7 8 7 8 10 10 11 12 10 10 8 12 12 10 10 10 11 12 13 14 14 14 14 14 15 15 14 14 15 16 16 14 13 14 14 13 13 13 12 10 10 10 10 9 7 9 9 8 8 9 8 9 9 8 8 8 8 7 7 7 6 4 2 1 2 3 3 5 6 6 7 7 9 9 8 7 6 6 6
6 6 6 8 8 7 9 8 8 10 11 12 13 13 12 11 11 13 12 9 11 10 9 11 11 14 15 14 15 15 16 15 15 16 16 16 16 16 14 14 13 13 13 13 12 12 13 11 11 11 10 11 10 9 8 8 9 8 8 7 7 7 7 6 6 5 4 5 2 4 3 3 4 6 7 7 7 7 8 9 8 8 7 6 6
6 6 7 9 9 9 10 9 10 11 13 12 15 14 14 14 12 13 11 11 11 10 11 11 12 13 14 16 17 17 16 16 16 15 15 15 15 14 15 14 14 14 14 13 12 13 13 13 12 12 11 11 9 10 9 11 9 8 8 7 7 6 6 6 6 5 6 6 4 4 5 5 5 6 7 7 7 7 8 8 7 7 7 6 5
7 7 7 9 9 10 10 9 11 13 14 14 15 14 14 13 12 11 12 13 11 12 14 13 13 14 14 15 16 16 15 15 17 17 17 15 15 14 14 14 14 14 13 13 13 13 13 12 12 12 13 14 13 11 10 12 9 9 9 8 7 6 7 6 6 6 6 6 6 6 5 5 4 5 6 7 7 7 6 6 5 5 4 3 4
15 15 11 7 9 9 9 11 12 12 13 14 13 12 12 12 12 13 11 13 14 14 13 14 14 15 16 14 15 15 16 16 16 15 15 15 15 15 14 14 14 13 13 14 14 13 13 13 13 14 15 14 13 13 13 11 10 10 9 9 8 8 7 7 7 7 7 6 6 6 5 5 6 6 6 7 8 7 7 5 4 2 3 4 7
12 13 14 15 13 11 9 9 10 12 12 12 12 12 11 11 12 12 10 13 14 14 15 16 14 13 15 14 14 12 14 14 14 14 14 15 15 16 16 15 15 14 13 13 13 14 14 13 13 14 14 13 13 12 12 12 10 10 9 8 9 9 8 7 7 7 7 7 6 6 6 6 5 6 6 5 5 5 4 3 7 7 7 5 6
11 11 11 11 12 13 13 10 9 10 11 11 11 11 11 12 11 11 11 13 12 13 12 12 12 13 12 13 14 13 14 15 14 15 16 16 16 16 17 17 16 15 13 13 12 13 12 12 12 13 13 13 15 13 13 12 11 11 9 10 10 9 7 7 7 7 6 6 5 6 6 6 6 5 5 4 3 4 3 3 6 6 7 7 4
11 11 12 12 12 12 12 11 11 10 10 10 11 11 11 11 11 11 13 13 12 10 10 11 13 14 14 14 14 13 14 12 13 20 19 16 16 14 13 14 15 15 15 14 13 13 13 12 12 17 18 18 18 18 19 19 16 12 11 12 11 10 9 9 8 7 7 7 6 6 6 5 5 5 3 3 2 1 2 4 6 6 7 8 6
12 11 13 13 13 13 13 12 11 11 11 10 9 9 11 10 10 11 11 10 11 11 11 13 15 14 14 14 14 13 13 11 16 23 24 24 17 15 14 14 13 14 14 15 15 14 12 11 10 15 16 17 16 21 20 20 20 19 18 17 14 13 12 10 9 9 8 7 7 7 6 5 4 3 2 3 1 0 3 4 6 8 8 10 11
11 10 10 11 12 13 13 13 13 12 10 11 10 10 9 8 10 10 10 10 10 9 12 15 13 12 12 13 14 14 13 12 20 23 25 25 20 15 13 13 13 14 14 15 14 14 14 12 12 11 12 14 13 15 18 21 21 20 20 19 19 18 15 11 11 10 10 8 8 8 7 6 4 2 3 1 2 2 4 6 7 8 9 10 10
10 10 9 10 11 11 12 13 12 12 11 10 9 8 8 8 9 9 11 11 8 11 12 11 13 13 13 15 15 14 13 15 22 24 25 25 25 19 12 13 14 14 15 15 15 15 13 13 12 11 10 20 15 12 12 14 18 21 19 20 20 21 20 19 15 9 9 9 8 7 6 4 4 4 2 1 4 6 6 6 7 7 8 9 8
11 11 10 10 11 11 11 11 11 12 11 11 9 8 8 10 10 9 8 6 9 11 11 13 12 12 14 15 14 13 14 15 24 25 26 27 26 21 13 14 13 14 15 15 13 14 15 14 14 11 10 13 12 13 12 12 12 12 12 12 11 17 19 20 20 19 14 8 7 7 4 3 4 2 3 5 5 5 5 5 6 6 5 6 9
8 8 9 10 10 11 12 12 12 12 11 9 9 9 9 9 9 8 8 10 11 12 12 13 13 12 12 12 12 12 12 17 23 25 25 26 26 22 12 12 11 11 11 12 13 13 14 13 11 10 12 13 12 16 13 13 12 12 12 12 12 11 11 11 11 7 6 3 4 4 2 2 3 6 7 5 6 6 5 5 3 3 6 7 7
11 11 11 11 11 11 11 12 12 12 12 11 10 10 9 9 9 8 7 8 8 7 8 8 11 12 12 12 13 13 10 18 22 24 26 25 26 15 12 12 12 11 11 12 11 10 11 12 10 10 11 11 17 24 18 13 11 13 12 10 8 7 6 5 7 6 4 3 3 4 5 7 10 8 7 6 4 3 2 3 4 4 5 7 9
13 14 13 13 12 11 11 11 12 11 11 11 12 11 11 10 9 6 7 8 8 9 10 10 10 11 12 12 13 12 9 16 23 24 26 27 20 12 12 11 11 12 12 11 12 12 12 11 10 9 11 11 19 24 23 19 11 13 11 10 7 6 6 6 12 15 14 15 14 13 13 14 12 10 9 9 5 3 3 5 5 1 3 8 11
12 12 13 13 13 12 11 11 11 11 10 11 11 11 9 8 8 6 8 9 9 10 9 9 8 9 11 12 13 12 10 14 24 24 26 28 19 14 12 13 12 11 10 11 10 10 12 19 15 10 11 11 21 24 24 19 12 13 11 11 10 9 8 6 6 8 16 16 15 14 11 9 9 7 3 3 5 6 1 5 3 1 5 4 9
11 12 13 13 12 11 11 11 11 11 11 11 10 10 10 9 8 5 7 7 9 7 6 7 7 7 8 10 9 12 9 12 22 24 26 27 19 12 12 11 12 12 11 10 9 9 11 15 20 14 11 15 24 25 26 20 12 13 13 11 11 11 9 9 7 6 6 5 4 1 4 5 1 3 1 5 6 6 3 5 3 3 5 5 6
10 11 12 12 12 12 11 11 11 11 12 12 10 9 8 8 7 7 7 7 8 7 6 7 8 8 7 8 9 10 10 9 15 24 25 28 24 13 12 13 13 13 12 12 12 10 11 10 15 20 20 21 23 25 25 24 13 11 10 10 11 11 8 8 8 8 7 5 3 3 4 3 3 1 1 0 3 4 5 5 3 4 5 5 5
11 12 12 12 12 12 11 10 12 12 10 11 10 9 7 7 7 6 8 7 6 6 7 7 7 6 6 6 7 8 8 10 13 23 26 28 28 20 13 14 12 12 12 12 12 12 12 12 10 19 22 22 22 25 25 25 18 12 12 10 9 8 9 7 10 14 5 4 4 3 1 0 0 1 1 1 3 4 4 5 4 5 5 5 6
11 12 13 13 13 13 12 12 11 10 10 9 11 11 8 6 6 6 6 6 7 8 6 6 6 6 5 6 7 8 8 13 10 18 25 27 28 24 14 12 12 12 12 12 11 11 7 9 9 18 24 23 22 24 26 24 24 11 12 14 15 17 11 7 5 5 5 4 3 2 2 1 1 1 1 2 4 4 5 5 6 6 6 7 6
12 14 14 14 14 14 13 14 13 10 10 10 10 12 9 7 7 5 6 6 8 8 8 7 6 7 6 6 6 7 8 9 17 14 21 26 30 25 23 14 20 13 13 13 14 8 7 7 9 21 24 25 24 24 24 25 21 12 19 20 18 19 11 6 6 6 5 4 3 3 3 2 2 2 2 2 3 4 5 5 6 6 7 7 8
13 15 15 14 14 15 15 14 13 11 11 11 10 11 10 8 7 6 7 7 7 8 7 6 6 7 8 7 7 7 7 7 13 20 17 26 27 28 27 22 22 13 11 10 8 6 7 9 13 22 24 24 24 24 22 22 14 19 21 20 21 15 8 7 6 5 5 4 4 5 5 3 2 2 2 2 3 4 5 5 6 7 8 8 8
14 15 16 16 16 15 15 14 14 13 12 10 11 11 11 8 8 7 7 8 8 9 8 7 8 9 8 9 8 8 8 8 8 15 22 20 27 28 28 26 24 21 13 8 7 7 10 20 19 22 23 23 23 23 20 22 24 20 20 21 14 7 7 6 6 5 5 5 6 5 4 3 3 3 3 3 4 5 5 3 4 6 7 9 10
14 15 16 16 17 16 17 17 16 15 14 11 11 11 11 9 9 8 7 9 9 9 9 8 9 9 9 9 9 9 9 8 9 9 13 16 18 27 28 28 28 25 18 12 16 19 20 22 22 24 23 20 16 12 9 10 19 21 17 14 7 6 6 6 5 6 6 6 5 6 3 1 2 2 3 3 3 3 3 4 4 6 5 7 9
16 17 17 16 16 16 17 15 14 14 14 12 10 10 10 9 9 9 9 9 9 9 10 9 9 10 11 10 8 8 11 10 9 9 9 10 11 13 16 18 25 24 16 12 15 14 17 18 14 18 12 21 14 11 11 9 9 8 7 6 5 5 5 5 6 6 6 5 5 3 2 1 1 2 2 2 4 4 4 5 5 6 5 7 8
16 17 19 16 15 15 15 18 18 14 13 11 11 11 10 10 11 11 11 11 11 11 10 11 12 11 11 9 8 9 11 10 10 11 10 10 11 12 11 12 14 12 12 11 11 11 13 16 18 12 10 8 8 7 6 6 6 6 6 6 5 5 6 8 7 4 4 4 2 2 0 0 1 2 2 3 4 5 3 5 5 7 6 6 8
17 19 18 16 15 15 14 13 13 13 13 13 12 12 12 11 12 12 13 11 12 12 11 12 12 11 10 10 10 10 10 12 14 12 14 17 15 13 13 12 12 11 15 20 13 11 10 10 9 10 10 10 9 9 8 7 6 6 8 8 6 6 6 7 7 7 5 4 4 3 2 1 2 1 2 3 5 5 4 5 6 6 7 5 9
17 18 16 14 14 13 12 12 12 13 12 13 13 13 14 19 16 13 13 15 21 21 16 12 11 9 10 11 11 14 15 14 15 23 23 23 25 24 16 16 17 15 22 31 19 14 13 12 11 12 12 11 12 11 11 9 9 8 7 8 6 5 6 5 7 5 5 5 4 4 3 2 2 2 2 4 4 4 6 7 6 5 7 8 9
15 16 15 14 14 14 12 12 13 12 13 13 14 15 14 13 21 27 26 19 17 21 25 26 21 16 13 10 11 20 13 11 21 24 26 25 25 27 23 20 22 25 29 21 15 14 13 14 13 12 13 12 13 12 10 10 9 10 6 6 6 7 6 5 4 5 5 4 4 4 3 3 3 2 3 4 4 5 4 5 6 6 7 8 9
15 16 16 15 15 14 13 12 13 13 13 13 13 14 14 15 13 16 23 25 27 25 24 26 27 26 23 18 10 9 18 21 22 25 26 27 27 28 26 25 25 29 30 25 15 13 13 13 13 12 12 12 11 9 10 9 10 11 7 8 5 5 6 5 6 4 4 4 4 4 3 3 4 3 3 4 5 5 5 5 5 7 8 8 9
17 17 16 16 15 16 15 14 12 10 12 14 13 11 12 13 14 13 10 17 23 25 25 24 25 26 26 25 23 17 16 19 23 25 26 27 28 28 27 27 29 32 32 18 14 13 12 12 11 11 11 12 11 10 9 9 11 10 7 8 6 5 4 4 5 3 3 3 3 3 4 4 3 4 4 5 5 5 5 5 6 7 8 9 10
17 15 15 14 14 13 13 12 13 13 11 11 12 11 12 11 13 12 12 8 9 15 23 26 25 24 26 26 24 23 22 24 25 26 27 27 28 28 27 21 29 35 27 15 13 13 12 11 10 10 10 8 8 8 10 9 9 11 9 6 4 5 5 5 4 2 3 2 2 2 2 2 3 3 4 4 4 4 5 7 6 8 8 8 10
15 17 28 24 15 12 12 14 13 12 14 13 14 14 14 13 13 13 12 11 10 10 8 11 19 24 19 19 23 25 24 25 26 25 27 27 28 28 28 16 18 19 18 13 13 12 13 13 11 10 9 9 10 11 12 12 12 12 11 7 5 5 4 4 3 3 3 3 3 3 3 4 3 4 4 4 4 5 6 7 7 8 9 9 9
13 14 14 16 14 13 13 13 13 13 14 15 15 15 14 11 11 11 11 11 11 10 10 9 9 14 26 24 25 24 25 25 24 26 26 28 29 30 18 15 15 14 13 11 11 10 10 10 10 9 9 8 8 8 9 13 12 11 8 9 7 5 4 4 4 4 3 3 3 4 4 3 3 3 2 3 6 7 7 8 8 8 9 9 9
13 13 12 11 11 13 13 13 11 14 16 16 14 13 13 15 14 11 10 10 11 10 10 7 6 7 13 13 19 23 26 24 24 25 26 27 31 23 14 14 15 12 10 11 10 11 11 10 8 8 9 9 10 10 10 10 11 9 7 5 6 6 4 5 4 4 4 3 3 3 2 3 3 3 3 4 6 6 7 8 9 10 10 11 13
16 15 12 12 12 14 12 12 13 20 17 15 13 13 14 14 14 12 11 10 10 10 9 8 8 9 10 11 13 11 15 22 24 21 22 23 20 15 13 12 13 13 14 13 12 12 11 10 10 11 9 10 11 10 9 9 8 9 8 7 5 5 8 6 6 5 4 2 2 2 3 4 3 3 4 4 6 7 8 9 9 10 10 10 8
13 21 28 30 25 18 15 16 17 14 14 14 12 11 12 11 12 12 11 10 10 9 9 8 9 9 10 8 8 10 13 11 12 13 13 13 14 14 12 12 11 10 11 12 12 11 10 10 8 9 11 11 11 11 12 10 6 8 8 8 5 3 4 5 4 3 2 2 2 3 3 4 4 4 4 5 6 8 8 9 9 9 11 10 9
13 13 17 25 17 17 16 15 14 14 15 12 10 10 10 11 11 11 9 9 10 9 9 9 10 10 9 8 9 11 12 12 13 12 12 13 13 13 11 11 11 11 11 11 10 10 10 10 10 11 12 11 11 12 11 11 10 7 5 5 5 5 4 4 4 4 4 3 4 3 4 4 4 4 4 6 7 8 9 9 9 9 10 10 10
12 13 15 16 18 16 15 16 14 13 10 12 12 13 12 12 10 10 9 10 9 9 9 10 10 9 8 12 20 19 12 12 11 12 11 12 12 11 10 10 10 11 11 11 10 10 12 12 10 13 11 11 12 13 11 11 10 7 6 5 4 4 4 4 4 4 4 4 4 4 4 4 4 4 6 7 9 9 8 9 9 9 9 8 9
12 13 13 13 15 13 13 14 13 15 16 17 14 11 11 10 10 9 10 9 9 9 9 9 9 8 11 22 23 27 14 9 9 9 9 7 6 7 8 9 9 11 11 11 11 12 14 14 14 14 15 16 13 12 11 11 11 10 6 5 4 4 4 4 5 4 4 4 4 4 4 4 5 6 7 8 7 8 9 9 9 9 8 9 10
14 13 12 13 12 12 13 13 13 12 13 13 14 14 12 11 10 9 9 9 9 9 8 8 7 7 8 17 20 24 11 9 5 7 6 7 8 8 9 9 9 9 9 9 9 14 14 15 15 17 16 16 15 16 16 14 11 11 8 6 6 6 5 4 4 4 4 4 4 4 4 4 6 5 6 8 8 8 8 10 9 8 8 10 10
12 13 13 13 13 12 13 12 13 13 12 14 14 14 11 8 9 8 8 8 8 7 8 7 6 7 7 11 14 14 7 7 7 7 8 7 8 9 9 9 10 11 10 11 11 14 17 16 16 13 11 10 10 10 9 9 8 8 7 7 6 5 5 5 5 5 5 4 3 3 4 4 5 6 7 8 8 8 9 9 8 8 10 10 10
11 11 12 11 11 11 12 12 12 12 14 13 12 11 9 7 7 7 7 7 6 6 6 6 6 6 7 9 9 7 8 8 7 7 8 9 9 9 11 12 13 15 14 12 12 13 15 16 17 15 13 8 8 8 6 6 5 5 6 7 7 7 7 7 6 5 5 4 3 3 4 5 6 6 7 8 8 7 8 8 8 9 11 10 10
11 11 11 12 12 12 11 11 12 11 11 11 10 8 7 7 7 6 6 5 5 6 5 5 6 6 4 5 7 8 8 9 9 9 9 9 9 11 16 17 17 16 16 15 14 14 15 17 16 16 13 10 10 7 7 7 5 4 4 5 5 5 4 3 3 3 3 3 4 4 5 5 7 7 9 8 8 8 9 8 8 9 10 11 11
11 10 10 11 11 11 11 10 10 10 10 10 9 8 6 6 5 5 3 4 5 4 5 5 5 6 7 7 8 9 8 9 10 10 10 12 16 16 13 15 16 16 16 15 15 15 15 13 14 15 10 5 5 5 5 4 4 5 4 4 4 4 3 3 3 3 4 4 5 5 6 6 7 7 10 9 8 9 7 8 9 10 10 9 10
9 10 9 9 9 8 8 8 9 11 10 9 5 3 3 3 4 4 4 4 6 5 7 7 7 7 8 8 8 8 9 9 9 11 11 9 11 10 15 15 15 15 16 15 13 12 11 11 11 10 7 5 5 5 5 5 4 4 5 5 5 5 5 5 4 5 5 5 6 7 7 7 8 8 8 9 9 7 7 8 9 9 9 9 10
8 7 7 6 5 4 5 6 4 3 1 2 4 4 3 4 4 5 5 6 6 7 7 8 8 8 8 8 8 9 9 10 11 12 10 9 10 12 18 17 19 16 16 12 12 11 10 9 9 9 10 8 8 8 7 6 5 5 5 4 6 10 10 10 7 6 8 7 7 7 8 8 9 10 10 8 7 7 8 9 9 9 8 8 9
8 8 7 7 7 7 7 6 6 5 5 4 5 5 5 5 6 6 7 7 7 7 7 7 8 8 9 9 9 9 10 11 12 12 10 8 7 7 13 17 17 16 12 6 6 7 8 8 8 5 5 6 7 7 6 4 4 4 4 5 8 9 9 10 11 12 9 6 7 7 8 8 8 9 7 6 6 8 9 9 9 9 8 9 10
9 8 8 7 7 8 8 7 7 7 7 6 6 6 6 6 6 6 7 7 8 7 8 7 7 8 8 8 8 9 10 12 12 10 10 11 10 7 7 6 8 10 11 7 6 4 4 4 3 3 3 3 3 3 2 3 4 4 6 8 8 9 10 10 7 9 14 11 8 7 8 8 9 8 5 6 7 7 10 11 10 8 7 8 9
Wind_Direction
301 298 308 267 243 233 229 222 231 226 231 226 230 229 224 216 213 215 194 205 189 190 193 191 189 190 189 191 190 188 187 187 187 186 188 192 191 189 180 184 188 190 175 181 180 179 184 183 180 177 165 169 172 167 173 172 169 173 170 172 176 177 167 163 180 236 290 96 25 358 24 20 334 346 329 330 320 311 308 300 297 291 286 283 289
251 261 264 261 256 250 245 238 229 219 226 224 226 224 218 217 214 199 210 213 199 205 196 192 191 189 189 192 191 189 189 190 186 186 189 190 191 186 185 184 189 186 178 186 185 183 180 180 182 175 176 174 170 177 175 173 177 172 184 180 183 184 183 165 186 178 251 40 42 32 26 10 264 302 286 294 287 292 296 298 291 281 284 291 301
270 263 255 249 247 247 248 243 234 227 227 227 229 226 222 220 207 212 217 206 202 208 206 198 193 191 192 190 190 191 191 191 189 188 192 191 190 190 187 186 188 186 187 191 184 177 179 187 184 172 171 175 180 182 175 181 179 183 185 185 185 184 183 178 156 187 217 269 142 152 190 223 227 257 262 255 258 268 280 281 281 281 275 276 280
276 263 254 251 250 249 243 239 232 231 229 228 228 224 220 219 210 216 215 201 205 205 202 207 202 195 194 191 191 193 193 192 190 193 192 190 191 191 186 188 190 191 190 187 183 183 187 182 185 177 176 180 182 180 185 180 183 186 184 189 183 179 180 168 173 149 167 198 243 151 195 186 231 241 246 249 247 249 243 257 261 265 269 273 273
294 278 264 263 259 252 252 243 239 235 234 233 231 228 222 222 214 216 208 209 206 196 202 198 203 205 200 196 194 194 195 191 191 192 194 193 193 189 188 188 190 191 190 188 185 185 187 191 180 174 177 180 182 187 184 186 187 182 186 183 180 174 165 171 163 155 163 199 233 230 216 226 226 234 239 245 247 236 239 240 247 251 258 257 261
325 294 278 270 265 256 256 250 245 242 239 238 235 232 229 226 222 218 209 212 203 202 201 198 199 203 209 205 199 196 191 191 194 194 191 189 190 190 188 189 191 190 188 187 186 187 189 187 180 177 180 185 188 186 184 186 180 185 183 181 173 170 166 159 161 163 172 201 208 239 221 223 228 220 224 231 242 258 252 247 242 244 247 262 245
344 340 328 293 278 272 262 254 247 245 242 240 239 237 234 230 223 222 210 212 208 206 203 202 202 202 204 205 206 197 193 194 194 193 191 190 188 187 187 190 191 190 191 187 185 187 187 186 182 183 187 190 185 184 182 181 184 186 183 176 174 170 169 168 166 170 181 194 213 221 236 235 218 230 224 220 231 239 264 278 285 285 286 307 303
346 341 336 332 324 305 281 266 260 255 253 249 244 240 236 232 227 224 212 215 214 210 206 204 205 202 205 203 206 200 197 196 194 192 191 190 188 190 189 190 190 191 190 189 186 187 188 187 186 188 190 190 186 182 178 181 175 181 179 175 175 171 172 169 171 178 187 196 204 215 226 233 227 215 217 218 235 247 229 295 312 316 312 302 295
347 345 341 339 331 321 312 298 280 268 259 257 252 244 237 233 230 223 216 218 215 215 210 207 206 208 208 205 202 199 200 200 196 191 189 190 192 192 190 190 188 187 186 188 189 188 188 188 187 187 188 187 186 181 183 177 171 175 180 176 175 172 172 175 176 179 187 190 209 227 235 227 212 203 213 204 225 263 295 319 300 301 296 296 282
346 346 350 348 342 334 322 311 298 285 277 263 254 247 241 235 229 225 222 218 217 212 206 206 208 209 207 208 205 203 207 206 196 189 186 187 189 192 191 190 187 186 184 184 188 191 192 187 186 182 184 185 185 185 185 186 187 182 173 175 175 172 176 175 181 182 179 192 203 213 224 221 213 208 206 219 220 259 309 311 308 310 306 297 293
347 348 347 346 341 340 337 328 318 303 286 275 268 257 246 239 233 231 229 220 215 210 203 207 209 208 208 207 207 209 209 207 195 194 192 187 183 186 187 188 189 189 189 185 186 185 188 179 181 183 181 183 186 187 187 188 188 189 185 182 180 173 170 178 187 180 182 196 204 211 218 228 227 212 219 249 241 319 301 307 314 318 320 322 317
339 340 339 339 342 341 340 334 327 315 303 287 275 264 257 247 239 234 229 224 219 209 212 213 209 206 206 208 211 212 211 200 196 197 196 192 186 185 186 186 186 191 191 191 188 182 182 178 184 182 182 182 180 186 188 190 189 189 188 187 189 191 191 181 175 182 189 193 203 209 216 225 231 213 236 234 258 291 305 315 309 308 305 303 301
328 330 335 338 340 341 339 338 330 322 312 299 288 279 264 251 244 237 229 224 214 215 220 212 213 209 204 208 213 212 213 199 198 196 195 194 189 182 190 188 187 193 191 192 189 184 179 178 179 186 183 182 179 182 180 188 191 189 190 192 196 200 202 201 195 190 189 194 200 210 210 208 220 238 166 194 289 300 305 299 295 292 292 293 297
330 329 335 339 340 340 340 337 331 323 315 306 294 279 265 254 245 237 236 223 218 222 219 216 215 210 210 210 212 212 211 199 197 196 195 194 189 184 190 187 192 194 194 192 189 186 182 178 177 177 178 180 179 179 180 183 183 185 188 192 199 208 209 207 206 207 208 200 203 213 211 178 216 217 229 265 280 277 278 274 288 296 297 292 301
320 321 329 331 337 340 339 336 331 326 320 309 295 281 266 264 258 244 229 222 220 219 216 217 216 213 212 210 213 213 212 198 198 196 194 193 191 184 186 186 189 194 194 193 193 189 185 182 178 165 169 177 181 179 177 180 181 184 189 195 202 204 208 214 216 214 213 178 187 209 209 188 205 230 238 250 252 244 266 303 351 316 299 300 290
327 330 334 337 339 338 335 330 327 324 322 317 306 290 278 264 260 251 240 238 234 232 232 224 220 216 213 209 212 215 207 197 198 197 195 194 189 183 184 184 186 187 189 190 190 190 188 185 176 171 169 173 181 183 182 176 177 182 189 194 193 196 207 211 213 216 205 207 208 197 204 218 231 230 227 227 247 297 354 4 330 336 340 305 288
331 334 334 334 333 331 330 325 322 320 319 317 309 300 291 278 265 254 245 240 232 226 226 218 217 215 211 210 211 213 204 197 197 196 195 192 186 182 179 181 186 187 189 186 187 187 186 183 178 166 174 176 182 183 182 177 176 181 185 188 186 189 207 207 218 221 220 217 213 215 223 230 241 255 272 286 291 313 4 327 292 353 324 304 293
326 329 327 327 326 325 324 324 319 317 315 311 303 298 290 282 273 252 239 239 234 232 224 225 222 217 214 212 209 208 204 198 198 196 194 193 183 177 178 183 187 188 187 184 183 186 188 187 184 172 172 171 181 184 184 181 178 182 181 182 186 199 207 195 203 217 221 227 231 233 234 238 258 273 310 311 298 309 356 268 268 14 281 253 283
324 326 323 320 319 318 318 318 317 313 309 302 296 291 285 274 267 246 242 242 241 234 222 225 223 218 220 215 207 207 202 200 200 199 196 194 186 172 175 183 183 189 183 182 183 181 186 190 187 179 169 173 182 185 186 181 174 180 181 178 192 203 199 183 190 199 216 199 199 187 250 251 85 99 309 326 316 314 292 262 263 224 252 254 264
318 317 314 314 313 313 314 314 312 311 306 299 292 280 275 276 261 243 242 233 238 223 217 219 218 219 210 210 211 207 199 199 205 202 200 200 191 170 179 182 190 186 183 182 177 182 184 185 188 186 179 182 187 188 187 181 170 176 177 186 192 200 176 182 195 197 194 175 195 167 160 155 183 150 90 357 277 259 260 246 226 204 221 243 244
316 313 311 308 308 307 307 307 305 304 297 292 288 283 270 260 258 246 246 244 237 230 220 219 216 219 205 211 209 211 200 195 207 205 204 203 196 173 186 190 186 181 182 178 185 183 185 186 179 184 183 185 189 191 190 186 174 177 185 191 195 178 174 176 196 195 174 138 131 144 155 103 324 333 355 250 259 253 244 255 245 246 244 246 262
316 313 308 306 303 301 304 305 303 297 295 291 290 283 275 258 249 244 241 237 236 236 228 219 216 215 210 207 209 212 200 199 202 211 210 208 205 180 182 192 182 178 181 188 187 189 178 164 146 182 184 186 189 192 193 189 181 173 189 192 193 194 193 168 145 114 125 136 130 159 186 192 195 225 239 234 242 248 248 247 251 252 252 249 251
314 308 304 302 303 304 305 305 303 301 292 284 277 279 277 265 252 234 235 235 237 240 228 221 213 217 212 210 210 210 204 204 202 207 214 211 211 190 183 183 188 184 186 188 189 175 126 149 164 181 187 189 190 193 194 194 191 176 188 199 198 203 179 129 138 135 127 149 149 204 240 226 241 245 239 240 252 247 246 249 247 255 258 256 259
309 304 301 301 304 304 303 300 298 294 290 285 270 267 266 252 248 232 223 224 230 233 234 222 219 218 216 215 210 209 206 202 209 209 214 214 213 203 193 183 186 184 189 191 179 150 156 165 178 185 191 192 191 192 192 193 189 176 187 196 202 186 125 140 124 146 134 139 187 224 234 219 188 236 232 238 243 259 268 276 275 272 272 272 270
305 300 301 303 301 300 299 296 295 293 285 275 272 267 257 241 241 233 220 225 222 228 231 215 220 223 221 221 211 205 203 204 204 213 214 220 217 205 196 187 186 183 184 185 170 166 166 175 178 186 190 188 188 189 191 191 193 188 187 197 172 110 139 130 148 127 169 196 214 218 220 209 205 226 248 266 278 286 280 278 285 280 281 280 275
300 298 297 295 295 297 296 294 289 285 283 271 260 258 259 247 233 233 217 224 220 222 227 218 222 223 227 224 218 195 190 196 208 209 214 219 222 215 200 194 191 188 176 174 174 171 175 179 181 187 190 186 183 185 174 179 188 193 181 136 117 140 122 137 128 162 198 201 195 210 214 193 207 239 282 295 290 279 283 278 281 280 278 283 283
298 295 290 290 290 291 289 289 290 289 284 278 262 257 251 245 237 233 221 221 222 222 223 220 222 223 227 226 219 193 167 190 201 202 206 212 216 224 211 196 191 184 174 171 170 173 176 180 181 184 183 189 171 131 134 156 163 124 92 115 114 118 137 140 172 176 183 180 191 194 202 206 273 305 286 281 272 271 271 270 271 275 283 276 276
294 291 289 288 286 285 284 284 286 284 281 275 271 263 249 238 239 232 222 217 219 224 219 219 221 218 224 221 208 197 201 204 202 196 199 201 210 211 206 185 187 179 167 164 162 164 164 171 174 175 164 145 118 108 101 110 120 126 113 109 118 117 153 161 156 160 174 180 167 154 98 138 294 257 268 265 266 274 271 270 266 274 270 277 283
290 286 284 283 279 278 277 278 278 281 281 276 264 258 258 251 240 244 234 224 219 221 218 223 222 220 217 213 200 206 207 209 209 191 196 198 199 203 202 188 180 168 165 158 149 155 158 164 154 146 141 142 144 148 155 140 136 140 137 126 132 152 151 168 170 177 171 142 164 167 194 161 234 237 251 266 267 269 267 266 267 262 273 259 269
287 282 281 279 277 277 277 276 274 276 277 278 279 272 252 245 244 241 251 226 227 228 223 226 221 210 218 219 200 204 208 210 191 195 201 202 208 210 210 188 178 160 165 165 155 157 166 162 164 163 159 158 166 168 170 170 156 156 159 156 144 147 164 162 171 163 159 164 167 165 177 182 235 232 240 250 271 262 260 270 274 272 279 276 276
282 280 281 279 280 284 284 283 282 279 278 278 279 279 281 264 249 249 248 244 229 231 235 237 235 218 210 223 215 218 217 187 193 199 199 202 206 210 208 188 176 166 167 159 157 163 165 171 174 174 174 168 173 175 169 168 167 148 153 160 148 167 172 169 172 164 162 162 167 165 177 185 222 226 243 256 261 272 265 257 255 269 262 270 276
278 279 280 282 284 283 281 279 279 276 275 274 272 276 277 277 269 246 248 250 246 241 239 238 238 235 228 221 206 211 217 208 197 196 199 199 204 208 207 188 176 170 173 160 159 175 175 174 174 175 172 172 177 168 169 170 164 151 145 155 172 171 161 173 172 161 162 157 158 162 174 193 213 220 231 249 261 261 264 268 264 264 271 266 266
273 275 275 278 279 281 279 278 275 271 271 272 271 261 261 262 265 274 251 243 247 243 239 237 236 236 233 231 221 204 197 202 202 200 199 199 200 205 203 188 177 174 170 169 175 170 177 179 175 173 174 179 172 167 168 164 157 153 156 159 157 166 165 166 155 144 146 159 157 192 196 203 205 226 243 253 260 267 266 270 268 263 268 277 277
267 269 273 274 275 273 271 267 266 268 266 264 262 260 259 261 266 264 268 259 244 244 243 239 236 235 234 231 227 219 211 204 202 200 200 199 198 202 203 192 181 179 175 174 172 175 171 173 172 173 176 171 165 158 157 153 157 151 138 138 135 144 147 150 147 151 147 202 191 186 202 216 219 225 244 246 257 268 275 269 271 270 270 268 282
266 265 270 275 274 270 267 270 268 263 257 251 253 254 252 253 251 255 253 251 245 239 230 232 233 231 229 229 225 219 210 206 202 199 199 198 198 198 199 188 185 189 182 175 174 170 170 172 170 171 171 170 171 169 168 156 144 149 150 151 145 142 143 138 143 156 171 171 200 198 208 222 221 224 235 265 281 284 276 274 265 264 272 281 281
265 267 271 270 267 266 265 264 266 270 277 282 287 287 289 279 255 246 244 241 242 240 240 226 219 223 225 225 220 217 212 206 203 200 199 198 196 196 195 188 185 186 178 171 168 165 157 162 161 165 165 163 157 160 147 142 151 142 133 142 147 139 137 143 147 146 173 186 204 220 217 217 218 237 260 264 260 263 269 268 270 267 270 272 278
272 268 263 258 255 258 262 260 257 261 266 266 261 256 257 265 269 260 245 241 236 235 236 225 203 214 225 226 222 218 214 205 203 201 200 199 198 199 199 189 181 173 157 160 157 153 162 162 157 154 159 156 161 160 157 161 148 140 151 142 143 141 145 144 160 159 173 190 205 199 214 233 252 245 236 256 268 266 269 272 272 275 280 289 295
265 262 255 257 254 260 258 254 260 265 264 260 252 247 251 255 258 253 246 240 233 230 228 219 208 206 205 215 208 208 210 206 202 203 203 202 201 201 196 184 177 167 167 162 163 157 159 159 156 161 159 154 150 141 138 126 136 140 141 132 139 140 164 170 179 166 160 157 201 226 243 250 241 244 245 254 266 274 271 273 278 283 285 286 289
283 284 285 286 284 282 282 280 279 276 268 265 257 254 255 256 251 244 239 233 233 227 225 218 213 211 210 202 193 190 198 197 196 197 196 198 201 200 192 184 169 154 156 157 152 154 149 149 144 138 122 131 139 141 136 138 139 138 132 120 126 153 156 122 142 157 174 197 222 225 229 248 250 246 246 254 263 265 268 272 276 286 293 294 288
275 274 275 275 272 269 266 263 259 258 263 265 255 244 243 240 242 241 234 229 228 224 221 217 216 215 203 187 188 186 189 196 196 191 191 195 196 196 183 176 163 153 148 142 142 140 139 138 140 139 137 133 138 128 136 138 137 137 134 142 141 149 166 156 149 162 184 196 209 227 233 247 258 261 263 259 258 262 269 276 283 286 285 284 291
270 273 277 278 277 279 279 280 280 274 261 248 247 248 247 247 242 233 229 227 224 223 220 220 219 214 197 197 194 189 188 193 193 191 195 193 191 181 170 159 143 136 136 136 140 142 142 138 134 130 128 131 129 123 133 137 134 137 137 145 141 150 156 170 169 171 187 197 214 228 239 242 253 257 265 265 270 278 280 284 282 283 282 288 290
274 274 271 269 270 268 267 265 262 264 268 276 275 257 244 237 232 229 226 223 221 218 219 219 218 210 208 204 201 196 190 190 188 190 186 172 143 133 127 127 132 135 139 141 142 140 132 131 130 132 127 121 124 132 130 132 143 140 145 143 153 149 155 174 189 188 185 199 217 228 241 243 248 249 259 272 280 277 277 277 280 281 289 295 292
271 268 266 265 263 259 260 261 263 265 265 260 258 266 255 236 226 225 222 221 219 215 214 212 208 199 201 207 201 198 184 185 164 154 126 129 124 124 126 127 127 123 123 123 132 136 135 131 124 119 123 136 143 147 152 152 149 134 145 156 168 177 185 182 185 193 191 201 220 234 240 248 265 266 268 267 265 270 274 284 283 286 291 292 291
265 266 263 262 259 259 259 257 262 264 264 258 259 260 258 242 229 222 221 217 215 211 210 205 195 184 184 198 197 195 153 140 128 134 126 122 120 118 117 115 114 109 106 102 112 109 112 119 111 104 102 105 113 107 119 142 149 156 163 161 164 174 178 188 191 194 190 194 215 233 247 256 258 262 261 267 267 272 282 281 283 292 295 293 292
263 262 260 259 254 250 252 251 254 257 261 264 254 249 245 235 228 223 217 215 207 202 202 194 182 178 180 189 187 151 120 120 113 108 110 112 111 114 120 110 112 111 109 112 121 124 118 116 110 119 119 116 111 113 134 138 156 159 161 166 168 182 191 196 195 182 172 185 223 246 257 255 258 255 263 262 269 275 278 280 283 293 294 291 296
264 260 253 252 253 248 248 250 250 250 253 255 252 241 229 225 219 216 208 202 191 184 179 167 174 166 146 100 92 107 110 107 106 103 104 104 111 118 93 96 93 93 93 100 105 105 114 111 122 114 122 127 137 133 135 117 147 162 170 182 191 195 185 165 147 153 182 199 228 238 254 255 261 258 265 273 279 281 272 274 281 286 286 293 294
273 256 250 244 246 242 244 247 252 256 258 256 245 237 219 211 205 191 183 163 153 147 148 134 97 92 99 102 103 103 108 110 113 114 116 119 119 116 109 102 97 93 90 86 89 98 101 100 105 108 116 122 129 136 146 158 165 179 182 196 202 213 199 191 192 204 206 209 221 228 244 248 266 273 278 275 275 275 271 280 285 290 287 291 294
298 296 281 258 242 244 249 247 249 251 250 249 224 198 169 145 134 124 121 121 118 100 88 87 95 96 96 95 96 100 101 104 104 110 117 112 116 114 114 114 111 109 107 97 96 90 95 102 111 116 119 128 133 142 151 164 160 175 193 201 203 207 209 202 201 217 216 222 224 229 235 246 251 254 265 267 270 270 284 288 288 284 287 291 297
312 312 317 322 322 288 264 257 251 249 173 108 92 90 87 96 92 96 96 91 87 97 107 107 101 100 93 95 100 98 100 108 114 115 112 104 106 95 94 98 95 93 95 93 98 101 108 106 106 95 105 123 133 139 151 158 178 188 199 201 214 219 219 219 214 220 223 226 224 227 233 240 248 255 259 261 269 276 277 279 282 282 284 289 295
337 342 344 348 360 6 10 22 27 34 37 56 69 74 71 81 80 84 87 90 91 87 89 91 95 101 109 108 109 111 113 115 120 121 115 107 107 106 104 95 87 88 89 92 91 95 94 97 110 120 128 142 147 139 145 164 185 196 200 204 217 222 226 229 233 236 236 233 227 229 230 244 254 267 270 266 269 274 279 281 281 281 285 295 298
350 355 3 5 13 18 23 28 30 32 34 44 48 62 65 68 68 71 79 85 90 88 89 81 92 94 96 102 108 113 114 118 120 120 121 120 120 108 95 95 97 95 89 92 93 86 97 107 126 129 136 139 147 151 155 170 201 205 217 220 226 230 233 234 232 240 237 235 238 248 259 266 271 267 266 273 274 274 278 283 283 280 289 294 298